Volver al catálogo

METEOR 2-8 DEB

ActivoPO
NORAD 36354·DEBRIS·🇷🇺 Russia

Lanzado Mar 25, 1982 desde Plesetsk Cosmodrome

Loading…

Próximos Pases (próximas 24 horas)

TLE

ObsoletoSource: Space-Track

Época: Sep 1, 2026, 09:20 UTC

1 36354U 82025AQ  26244.38952086  .00002368  00000-0  92979-3 0  9995
2 36354  82.4915 126.3478 0014220 192.9826 167.0995 14.28973600190657

Sigue METEOR 2-8 DEB en tiempo real con AllMySat

Download on the App Store